Precipitable_Water
0.93 1.10 1.10 1.12 1.21 1.47 1.56 1.61 1.58 1.67 1.70 1.71 1.84 1.86 1.85 1.89 1.88 1.90 1.92 1.93 1.96 1.94 1.97 2.03 2.23 2.09 2.28 2.25 2.21 2.24 2.19 2.16 2.06
0.86 0.99 1.06 1.18 1.34 1.46 1.58 1.62 1.56 1.60 1.63 1.66 1.75 1.74 1.80 1.83 1.89 1.93 1.93 1.95 2.02 1.93 2.02 2.07 2.12 1.96 1.95 2.13 2.29 2.32 2.25 2.11 1.95
0.81 0.96 1.12 1.24 1.28 1.40 1.57 1.65 1.50 1.55 1.59 1.58 1.62 1.65 1.75 1.80 1.89 2.04 2.04 1.92 1.71 1.74 1.99 2.04 2.00 1.85 2.01 2.14 2.13 2.26 2.20 2.02 2.02
0.89 1.04 1.13 1.24 1.23 1.46 1.54 1.48 1.44 1.52 1.52 1.51 1.48 1.63 1.78 1.82 1.86 1.95 2.01 1.93 1.69 1.61 1.81 1.93 1.94 1.79 1.82 2.09 2.04 2.19 2.20 2.18 2.02
0.99 1.13 1.21 1.25 1.24 1.47 1.50 1.36 1.49 1.53 1.48 1.41 1.49 1.65 1.77 1.82 1.89 1.92 1.94 1.86 1.69 1.58 1.71 1.92 1.90 1.82 1.82 2.02 2.02 2.08 2.11 2.12 2.10
1.02 1.15 1.21 1.19 1.25 1.38 1.39 1.27 1.46 1.49 1.47 1.50 1.61 1.72 1.76 1.82 1.84 1.84 1.91 1.88 1.69 1.62 1.58 1.69 1.69 1.80 1.78 1.89 1.97 2.05 2.12 2.12 2.07
0.93 0.97 1.04 1.10 1.08 1.27 1.30 1.26 1.33 1.47 1.51 1.59 1.65 1.70 1.71 1.75 1.82 1.86 1.97 1.81 1.62 1.48 1.39 1.36 1.44 1.49 1.57 1.66 1.68 1.79 1.96 2.01 2.02
0.75 0.89 1.00 0.98 0.99 1.14 1.23 1.28 1.31 1.47 1.47 1.51 1.64 1.64 1.74 1.72 1.85 1.88 1.71 1.44 1.49 1.38 1.34 1.36 1.41 1.34 1.36 1.42 1.42 1.43 1.49 1.61 1.75
0.74 0.86 0.95 0.99 1.01 1.13 1.18 1.25 1.27 1.37 1.45 1.45 1.53 1.50 1.54 1.67 1.66 1.61 1.42 1.41 1.39 1.36 1.31 1.35 1.37 1.35 1.35 1.31 1.33 1.37 1.34 1.28 1.21
0.72 0.89 0.93 0.91 0.94 1.07 1.18 1.25 1.33 1.29 1.41 1.56 1.56 1.57 1.60 1.62 1.58 1.53 1.47 1.49 1.50 1.41 1.39 1.47 1.40 1.38 1.36 1.29 1.25 1.27 1.24 1.30 1.27
0.81 0.90 0.98 0.98 1.01 1.12 1.24 1.34 1.35 1.38 1.48 1.51 1.52 1.57 1.65 1.68 1.61 1.52 1.57 1.57 1.59 1.57 1.51 1.50 1.42 1.41 1.40 1.30 1.25 1.17 1.05 1.12 1.20
0.92 0.93 0.96 0.97 1.04 1.15 1.30 1.36 1.42 1.42 1.42 1.48 1.52 1.60 1.63 1.70 1.64 1.53 1.50 1.55 1.59 1.52 1.43 1.50 1.52 1.52 1.48 1.43 1.35 1.20 1.10 1.06 1.15
1.01 1.07 1.06 1.01 1.10 1.18 1.28 1.36 1.45 1.44 1.46 1.42 1.46 1.62 1.66 1.67 1.65 1.62 1.59 1.63 1.66 1.62 1.57 1.57 1.63 1.62 1.62 1.60 1.50 1.42 1.28 1.17 1.13
1.14 1.18 1.15 1.17 1.13 1.15 1.19 1.34 1.42 1.41 1.49 1.50 1.55 1.72 1.77 1.72 1.66 1.66 1.70 1.75 1.77 1.69 1.57 1.59 1.65 1.62 1.62 1.61 1.58 1.42 1.28 1.27 1.29
1.37 1.35 1.31 1.26 1.17 1.19 1.32 1.39 1.41 1.45 1.50 1.70 1.90 1.94 1.86 1.85 1.79 1.76 1.76 1.80 1.82 1.77 1.68 1.60 1.59 1.58 1.55 1.56 1.45 1.30 1.21 1.18 1.20
1.33 1.42 1.42 1.40 1.26 1.27 1.40 1.49 1.51 1.54 1.71 1.84 1.93 1.90 1.58 1.67 1.63 1.80 1.84 1.78 1.77 1.72 1.70 1.58 1.48 1.45 1.42 1.45 1.48 1.38 1.35 1.37 1.36
1.22 1.29 1.28 1.44 1.49 1.50 1.53 1.67 1.74 1.82 1.97 1.96 2.07 1.93 1.80 1.77 1.71 1.62 1.73 1.77 1.80 1.73 1.61 1.48 1.41 1.33 1.30 1.35 1.45 1.43 1.33 1.27 1.13
1.36 1.42 1.42 1.43 1.45 1.51 1.57 1.71 1.72 1.85 1.87 1.72 1.53 1.88 1.82 1.74 1.67 1.59 1.59 1.66 1.69 1.66 1.60 1.52 1.38 1.35 1.32 1.16 1.26 1.42 1.38 1.38 1.33
1.51 1.51 1.59 1.51 1.49 1.46 1.46 1.47 1.46 1.61 1.71 1.74 1.81 1.74 1.71 1.69 1.58 1.56 1.56 1.55 1.53 1.58 1.53 1.53 1.50 1.44 1.33 1.29 1.38 1.43 1.32 1.25 1.25
1.41 1.52 1.50 1.43 1.35 1.28 1.29 1.31 1.43 1.61 1.79 1.76 1.74 1.66 1.73 1.68 1.58 1.55 1.51 1.48 1.44 1.34 1.43 1.46 1.44 1.39 1.36 1.26 1.26 1.22 1.17 1.13 1.06
Wind_Speed
6 4 4 6 7 6 7 7 9 10 10 11 11 12 13 12 13 12 11 11 12 12 13 12 12 9 10 14 13 15 18 20 18
8 7 7 7 6 5 5 5 8 9 9 9 10 11 11 11 12 12 11 7 7 9 11 11 10 8 9 12 15 15 19 20 19
7 7 5 5 5 4 3 3 6 8 10 10 11 11 11 11 12 11 10 8 6 5 8 9 8 6 4 4 9 15 18 19 19
5 5 5 4 5 4 3 2 5 8 10 12 12 12 11 11 11 11 10 9 5 3 4 6 6 7 5 3 5 13 15 18 17
7 6 5 5 4 4 3 3 6 8 10 12 13 12 12 11 11 10 10 8 7 5 3 4 4 5 6 5 7 9 11 14 13
7 8 6 6 5 5 5 5 6 8 10 12 12 13 13 11 11 11 9 9 7 6 5 3 3 5 6 7 6 6 10 9 11
10 10 10 7 7 6 6 6 7 8 10 11 12 12 13 12 12 11 10 9 8 7 5 5 4 4 5 5 6 7 7 8 9
10 11 10 9 8 7 7 7 9 10 10 11 12 12 12 13 12 12 11 11 10 8 7 6 5 4 5 5 5 5 7 7 8
11 11 11 10 9 9 8 8 9 11 11 12 13 13 13 13 12 13 12 12 10 9 8 7 7 6 5 5 5 5 5 7 8
14 13 12 11 11 11 10 10 10 12 12 12 13 13 13 14 13 14 14 13 11 10 10 9 9 9 8 8 7 7 8 8 9
17 16 14 14 13 13 13 12 13 13 13 13 14 14 14 14 15 15 15 14 12 11 11 11 11 11 12 11 11 11 11 10 11
18 16 15 15 15 14 14 14 14 14 14 15 16 16 16 16 15 16 16 15 13 13 12 11 12 13 13 13 15 15 14 14 13
18 18 16 14 15 15 16 16 16 16 16 17 19 19 19 18 17 16 17 17 14 13 13 12 13 15 16 17 17 18 19 18 17
18 18 18 16 15 16 18 18 18 18 18 19 21 22 21 20 19 18 17 17 16 16 15 14 14 16 17 18 19 19 19 20 20
13 14 16 18 18 18 19 20 20 20 21 21 22 24 25 19 20 16 18 19 17 15 15 15 15 14 14 16 16 17 19 19 20
16 15 13 14 17 17 18 20 21 22 22 23 23 23 22 15 18 19 18 18 16 15 15 14 14 14 15 15 16 18 20 21 22
17 17 15 15 15 16 17 19 22 23 24 23 23 23 23 19 16 17 18 18 18 17 15 14 14 14 14 15 16 16 16 15 17
21 16 16 16 17 17 17 17 19 22 25 25 23 24 22 21 19 18 19 19 20 17 17 16 15 15 14 13 13 14 15 17 18
17 19 19 17 17 18 19 20 22 23 24 23 24 24 23 22 21 20 19 19 18 18 18 17 17 15 14 13 12 11 12 12 14
14 15 16 17 19 20 21 22 22 22 24 26 26 26 25 23 22 21 20 20 20 18 17 17 17 17 17 15 13 12 11 12 13
Wind_Direction
239 257 295 290 294 285 291 257 234 230 228 230 224 219 215 213 211 210 209 212 220 230 243 250 254 266 251 241 234 224 208 202 204
236 254 273 280 287 296 305 266 229 223 221 214 205 202 200 201 197 195 196 208 217 242 241 238 250 261 273 247 226 211 206 202 201
247 243 278 289 295 297 300 271 220 214 206 198 194 194 195 197 196 199 205 211 231 239 240 233 239 247 264 258 215 202 197 195 199
222 232 265 277 286 277 284 276 212 204 198 196 194 194 196 199 201 204 208 214 224 225 241 223 230 231 233 226 199 186 192 194 194
251 242 264 271 270 257 273 257 205 200 200 201 201 201 202 203 203 203 203 210 209 220 224 212 217 207 206 178 168 175 182 190 195
244 240 249 237 255 252 252 235 215 205 202 202 204 203 202 202 201 200 201 203 212 206 197 178 184 194 193 188 188 189 203 202 200
251 245 225 244 253 244 236 226 214 208 204 202 200 199 197 197 198 201 205 202 196 193 187 177 163 157 166 172 182 189 183 188 195
233 225 236 240 246 236 232 226 216 212 211 205 200 198 199 201 202 205 202 196 194 196 191 187 179 165 165 169 171 183 195 201 200
235 238 238 241 241 236 229 223 213 211 211 208 203 204 205 203 203 199 196 194 197 199 202 208 210 207 204 203 206 208 208 212 216
245 240 242 245 240 235 234 226 218 214 212 208 207 205 205 204 202 199 198 200 205 213 218 222 226 227 229 234 237 238 237 235 232
245 241 247 249 243 236 235 230 225 220 214 211 210 207 203 203 202 202 203 208 219 226 229 230 233 238 243 246 250 249 247 242 239
244 240 244 245 243 237 234 230 227 223 220 218 215 214 210 210 209 209 213 218 224 228 229 229 240 248 253 255 255 253 249 245 243
242 243 243 248 244 237 234 233 231 229 229 226 223 218 217 217 218 222 227 223 225 225 230 240 251 260 260 258 260 259 249 245 244
243 244 244 244 243 238 238 237 237 236 236 234 229 222 222 221 227 225 224 225 232 233 240 249 261 263 263 264 262 256 248 245 245
246 247 248 247 246 248 247 243 242 243 241 240 232 226 221 223 228 227 228 230 236 238 246 253 259 259 265 268 263 254 250 246 243
247 246 253 252 248 252 254 250 248 246 248 242 235 230 230 239 231 232 233 234 240 244 249 253 255 263 269 271 265 260 253 247 247
242 243 252 254 256 257 259 258 253 248 247 249 248 236 231 242 239 237 237 241 244 249 248 251 257 266 270 272 268 260 256 247 236
234 243 253 257 257 260 263 262 260 256 257 260 264 240 241 240 240 241 240 244 248 244 247 250 256 265 269 273 273 259 250 244 242
236 245 251 254 259 264 263 266 264 262 261 259 254 252 248 246 243 239 239 239 239 247 249 249 255 258 262 267 271 253 243 239 238
243 247 260 260 263 267 268 267 268 266 262 260 257 255 247 239 237 236 237 239 241 243 248 250 255 258 259 257 258 249 241 240 245